Date,TemperatureHighF,TemperatureAvgF,TemperatureLowF,DewpointHighF,DewpointAvgF,DewpointLowF,HumidityHigh,HumidityAvg,HumidityLow,PressureMaxIn,PressureMinIn,WindSpeedMaxMPH,WindSpeedAvgMPH,GustSpeedMaxMPH,PrecipitationSumIn
2013-1-1,34,25,10,30,20,7,92,81,63,30.13,30.01,10,4,0,0.00
2013-1-2,19,13,5,18,7,0,92,78,61,30.23,30.11,7,3,0,0.00
2013-1-3,30,21,5,23,11,0,92,65,41,30.25,30.15,16,9,24,0.00
2013-1-4,27,23,18,18,14,10,79,68,54,30.29,30.22,21,13,28,0.00
2013-1-5,37,28,18,28,21,14,92,74,55,30.31,30.11,18,8,27,0.00
2013-1-6,37,33,27,32,26,21,92,78,69,30.31,29.98,16,12,23,0.00
2013-1-7,34,26,14,25,20,10,92,79,64,30.45,30.21,15,6,18,0.00
2013-1-8,39,32,23,28,24,19,85,71,60,30.29,30.19,16,8,20,0.00
2013-1-9,43,39,34,36,32,27,86,75,65,30.51,30.15,16,11,23,0.00
2013-1-10,43,34,25,30,27,23,100,77,52,30.53,30.11,17,6,23,0.00
2013-1-11,57,51,39,52,45,30,93,81,65,30.11,29.85,18,12,27,0.00
2013-1-12,63,55,48,61,51,45,93,85,71,30.01,29.75,21,8,27,0.00
2013-1-13,64,63,63,61,60,59,93,90,88,29.75,29.68,22,18,30,0.00
2013-1-14,63,26,21,59,20,16,88,76,68,30.45,29.68,18,6,24,0.00
2013-1-15,32,27,21,23,20,18,85,73,59,30.40,30.10,12,7,0,0.00
2013-1-16,34,31,28,27,23,21,92,74,59,30.10,29.93,16,8,20,0.00
2013-1-17,39,33,23,28,23,10,86,67,44,30.37,30.04,16,8,23,0.00
2013-1-18,37,29,19,21,16,10,85,59,40,30.48,30.10,27,12,41,0.00
2013-1-19,52,44,37,30,22,18,56,43,32,30.10,29.81,24,18,36,0.00
2013-1-20,45,29,21,32,13,7,67,50,31,30.21,29.80,28,13,38,0.00
2013-1-21,21,17,10,12,6,0,92,63,41,30.18,30.05,24,13,31,0.00
2013-1-22,14,10,5,9,6,3,100,81,66,30.33,30.18,18,11,28,0.00
2013-1-23,21,15,7,14,5,0,85,65,41,30.30,30.07,15,9,17,0.00
2013-1-24,21,16,10,12,5,0,78,60,38,30.57,30.08,17,7,25,0.00
2013-1-25,25,21,18,19,14,5,85,73,52,30.45,30.00,14,8,0,0.00
2013-1-26,27,24,7,19,17,3,92,76,68,30.45,30.06,12,5,0,0.00
2013-1-27,34,25,10,32,17,7,93,72,59,30.45,30.11,15,7,20,0.00
2013-1-28,52,45,34,48,43,32,100,90,81,30.11,29.95,22,14,28,0.00
2013-1-29,63,56,48,55,52,46,100,85,72,30.01,29.53,28,16,33,0.00
2013-1-30,64,52,32,55,46,28,93,82,72,29.53,29.23,30,17,44,0.00
2013-1-31,32,24,16,30,14,3,92,65,49,29.98,29.45,30,18,39,0.00